Location: Haliburton Scout Reserve
(45.0900°N, 78.3200°W)
Time: 12:44:53
(UTC-05:00)

Tiros 1 despin weight - All Passes

Search period start: 07 February 2023 00:00
Search period end: 17 February 2023 00:00
Orbit: 589 x 636 km, 48.2° (Epoch: 06 February)

Date Brightness Start Highest point End Pass type
(mag) Time Alt. Az. Time Alt. Az. Time Alt. Az.
07 Feb - 14:15:51 10° SSW 14:19:58 33° SE 14:24:04 10° E daylight
07 Feb - 15:56:34 10° WSW 16:01:11 82° NNW 16:05:45 10° ENE daylight
07 Feb - 17:38:23 10° WNW 17:42:55 57° N 17:47:22 10° E daylight
07 Feb - 19:20:02 10° WNW 19:24:35 87° SSW 19:29:03 10° ESE visible
07 Feb - 21:01:57 10° W 21:05:37 25° SW 21:09:15 10° SSE visible
08 Feb - 12:51:44 10° SSE 12:53:49 13° SE 12:55:54 10° ESE daylight
08 Feb - 14:30:02 10° SW 14:34:32 53° SSE 14:39:00 10° ENE daylight
08 Feb - 16:11:24 10° W 16:16:00 66° N 16:20:31 10° ENE daylight
08 Feb - 17:53:14 10° WNW 17:57:47 63° N 18:02:15 10° E visible
08 Feb - 19:34:48 10° WNW 19:39:16 59° SSW 19:43:38 10° SE visible
08 Feb - 21:17:36 10° WSW 21:19:59 14° SW 21:22:22 10° SSW visible
09 Feb - 13:04:32 10° S 13:08:10 23° SE 13:11:48 10° E daylight
09 Feb - 14:44:33 10° WSW 14:49:11 80° SSE 14:53:47 10° ENE daylight
09 Feb - 16:26:17 10° W 16:30:50 58° N 16:35:19 10° ENE daylight
09 Feb - 18:08:01 10° WNW 18:12:36 77° NNE 18:17:05 10° ESE visible
09 Feb - 19:49:41 10° WNW 19:53:50 36° SW 19:57:55 10° SSE visible
10 Feb - 13:18:21 10° SSW 13:22:39 38° SE 13:26:54 10° ENE daylight
10 Feb - 14:59:18 10° WSW 15:03:56 76° NNW 15:08:31 10° ENE daylight
10 Feb - 16:41:09 10° WNW 16:45:42 58° N 16:50:11 10° E daylight
10 Feb - 18:22:45 10° WNW 18:27:19 78° SSW 18:31:49 10° ESE visible
10 Feb - 20:04:50 10° W 20:08:17 22° SW 20:11:40 10° S visible
11 Feb - 11:53:40 10° S 11:56:25 16° SE 11:59:10 10° E daylight
11 Feb - 13:32:38 10° SW 13:37:13 61° SSE 13:41:46 10° ENE daylight
11 Feb - 15:14:09 10° W 15:18:44 63° N 15:23:16 10° ENE daylight
11 Feb - 16:55:57 10° WNW 17:00:32 66° NNE 17:05:03 10° E daylight
11 Feb - 18:37:32 10° WNW 18:41:57 51° SSW 18:46:18 10° SE visible
11 Feb - 20:20:56 10° WSW 20:22:36 12° SW 20:24:15 10° SSW visible
12 Feb - 12:06:53 10° SSW 12:10:47 27° SE 12:14:41 10° E daylight
12 Feb - 13:47:13 10° WSW 13:51:53 88° SSE 13:56:30 10° ENE daylight
12 Feb - 15:29:01 10° W 15:33:35 58° N 15:38:05 10° ENE daylight
12 Feb - 17:10:42 10° WNW 17:15:19 83° NNE 17:19:51 10° ESE daylight
12 Feb - 18:52:27 10° W 18:56:29 31° SW 19:00:26 10° SSE visible
13 Feb - 12:20:51 10° SW 12:25:16 44° SSE 12:29:40 10° ENE daylight
13 Feb - 14:01:59 10° W 14:06:38 71° NNW 14:11:14 10° ENE daylight
13 Feb - 15:43:50 10° WNW 15:48:25 60° N 15:52:56 10° E daylight
13 Feb - 17:25:26 10° WNW 17:30:00 70° SSW 17:34:29 10° ESE daylight
13 Feb - 19:07:45 10° W 19:10:52 18° SW 19:13:57 10° S visible
14 Feb - 10:55:44 10° S 10:58:57 19° SE 11:02:10 10° E daylight
14 Feb - 12:35:14 10° WSW 12:39:51 69° SSE 12:44:27 10° ENE daylight
14 Feb - 14:16:50 10° W 14:21:26 60° N 14:25:59 10° ENE daylight
14 Feb - 15:58:36 10° WNW 16:03:14 70° NNE 16:07:46 10° E daylight
14 Feb - 17:40:13 10° WNW 17:44:35 44° SSW 17:48:52 10° SE daylight
15 Feb - 11:09:15 10° SSW 11:13:21 31° SE 11:17:27 10° E daylight
15 Feb - 12:49:51 10° WSW 12:54:32 85° NNW 12:59:10 10° ENE daylight
15 Feb - 14:31:41 10° W 14:36:16 58° N 14:40:48 10° E daylight
15 Feb - 16:13:19 10° WNW 16:17:58 89° S 16:22:31 10° ESE daylight
15 Feb - 17:55:12 10° W 17:59:02 27° SW 18:02:50 10° SSE daylight
16 Feb - 09:45:18 10° SSE 09:47:10 12° SE 09:49:02 10° ESE daylight
16 Feb - 11:23:20 10° SW 11:27:50 51° SSE 11:32:20 10° ENE daylight
16 Feb - 13:04:38 10° W 13:09:16 67° NNW 13:13:53 10° ENE daylight
16 Feb - 14:46:28 10° WNW 14:51:05 62° N 14:55:37 10° E daylight
16 Feb - 16:28:03 10° WNW 16:32:36 62° SSW 16:37:05 10° SE daylight
16 Feb - 18:10:40 10° W 18:13:22 16° SW 18:16:03 10° S visible
